CW9688 Weather Reports


Display with metric or nautical units.
time (UTC)temp
F
wind
direction
speed
MPH
gust
MPH
rain 1hr
in
rain 24hr
in
rain mn
in
humidity
%
barometer
mb
20200403071301 18 121 2.0 3.0 0.00 0.01 0.00 86 1019.7
20200403070801 18 121 2.0 3.0 0.00 0.01 0.00 86 1019.6
20200403070301 18 121 2.0 3.0 0.00 0.01 0.00 86 1019.6
20200403064801 18 122 2.0 3.0 0.00 0.01 0.00 87 1019.6
20200403064301 18 122 1.0 3.0 0.00 0.01 0.00 87 1019.6
20200403063801 18 120 2.0 3.0 0.00 0.01 0.00 87 1019.6
20200403063301 18 105 1.0 3.0 0.00 0.01 0.00 87 1019.6
20200403062301 18 86 1.0 3.0 0.00 0.01 0.00 87 1019.6
20200403061801 18 86 0.0 2.0 0.00 0.01 0.00 87 1019.6
20200403061301 18 86 1.0 2.0 0.00 0.01 0.00 86 1019.5
20200403060301 18 86 2.0 3.0 0.00 0.01 0.00 86 1019.3
20200403054301 18 84 1.0 3.0 0.00 0.01 0.01 86 1019.7
20200403053801 18 84 1.0 3.0 0.00 0.01 0.01 86 1019.7
20200403053301 18 84 1.0 3.0 0.00 0.01 0.01 86 1019.7
20200403052802 18 76 1.0 2.0 0.00 0.01 0.01 86 1019.4
20200403051301 18 74 1.0 3.0 0.00 0.01 0.01 86 1019.3
20200403050301 18 69 1.0 2.0 0.00 0.01 0.01 87 1019.2
20200403043801 18 49 1.0 3.0 0.00 0.01 0.01 87 1019.1
20200403042801 18 46 2.0 3.0 0.00 0.01 0.01 87 1018.7
20200403041301 19 36 1.0 2.0 0.00 0.01 0.01 87 1018.7
20200403040802 18 36 0.0 3.0 0.00 0.01 0.01 87 1018.9
20200403040301 18 36 1.0 2.0 0.00 0.01 0.01 87 1018.9
20200403035301 19 33 1.0 3.0 0.00 0.01 0.01 87 1018.9
20200403034301 19 23 2.0 3.0 0.00 0.01 0.01 87 1018.9
20200403033301 19 30 2.0 3.0 0.00 0.01 0.01 87 1018.6
20200403032301 19 39 2.0 3.0 0.00 0.01 0.01 87 1018.7
20200403031801 19 55 1.0 3.0 0.00 0.01 0.01 88 1018.5
20200403031301 19 63 2.0 3.0 0.00 0.01 0.01 87 1018.5
20200403030802 19 51 1.0 3.0 0.00 0.01 0.01 87 1017.9
20200403025801 19 43 3.0 6.0 0.00 0.01 0.01 88 1018.0
20200403025301 20 22 3.0 5.0 0.00 0.01 0.01 88 1017.8
20200403024801 20 41 3.0 5.0 0.00 0.01 0.01 88 1017.8
20200403023801 20 51 2.0 5.0 0.00 0.01 0.01 88 1017.5
20200403023301 20 25 3.0 6.0 0.00 0.01 0.01 87 1017.3
20200403022302 20 40 3.0 6.0 0.00 0.01 0.01 87 1017.1
20200403021801 20 30 2.0 6.0 0.00 0.01 0.01 87 1017.0
20200403021301 20 60 3.0 6.0 0.00 0.01 0.01 87 1016.9
20200403020301 20 54 2.0 7.0 0.00 0.01 0.01 87 1017.0
20200403014801 21 44 3.0 7.0 0.00 0.01 0.01 87 1016.8
20200403014301 21 38 3.0 7.0 0.00 0.01 0.01 87 1016.7
20200403013301 22 51 3.0 7.0 0.00 0.01 0.01 87 1016.5
20200403012801 22 38 3.0 6.0 0.00 0.01 0.01 87 1016.4
20200403012301 22 52 3.0 7.0 0.00 0.01 0.01 87 1016.4
20200403011802 22 30 3.0 7.0 0.00 0.01 0.01 87 1015.8
20200403011301 23 40 5.0 7.0 0.00 0.01 0.01 87 1016.1
20200403010801 23 33 4.0 6.0 0.00 0.01 0.01 87 1015.9
20200403010301 23 44 3.0 8.0 0.00 0.01 0.01 87 1015.9
20200403004801 24 40 4.0 8.0 0.00 0.01 0.01 87 1015.9
20200403003301 26 29 5.0 7.0 0.00 0.01 0.01 88 1015.5
20200403002301 26 49 2.0 5.0 0.00 0.01 0.01 88 1015.3
20200403001801 26 50 4.0 8.0 0.00 0.01 0.01 87 1015.0
20200403000801 26 18 5.0 7.0 0.00 0.01 0.01 87 1014.8
20200403000301 26 11 3.0 6.0 0.00 0.01 0.01 87 1014.5
20200402235801 26 9 3.0 7.0 0.00 0.01 0.01 87 1015.1
20200402235301 27 5 3.0 6.0 0.00 0.01 0.01 87 1015.1
20200402234801 27 355 3.0 6.0 0.00 0.01 0.01 87 1015.0
20200402233801 27 355 1.0 3.0 0.00 0.01 0.01 86 1014.8
20200402232801 27 355 0.0 0.0 0.00 0.01 0.01 85 1014.9
20200402232301 27 355 0.0 0.0 0.00 0.01 0.01 84 1014.5
20200402231801 27 355 0.0 0.0 0.00 0.01 0.01 83 1013.9
20200402230801 27 355 0.0 0.0 0.00 0.01 0.01 83 1013.4
20200402230302 27 355 0.0 0.0 0.00 0.01 0.01 83 1013.4
20200402225801 27 355 0.0 0.0 0.00 0.01 0.01 83 1014.3
20200402225301 27 355 0.0 0.0 0.00 0.01 0.01 83 1014.0
20200402222301 27 355 1.0 3.0 0.00 0.01 0.01 83 1014.0
20200402221802 27 355 1.0 6.0 0.00 0.01 0.01 84 1013.8
20200402221301 27 0 3.0 6.0 0.00 0.01 0.01 84 1013.9
20200402220801 26 5 2.0 3.0 0.00 0.01 0.01 84 1014.1
20200402215802 27 5 2.0 6.0 0.00 0.01 0.01 84 1013.7
20200402215301 27 30 3.0 3.0 0.00 0.01 0.01 84 1013.7
20200402214801 27 30 2.0 3.0 0.00 0.01 0.01 84 1013.4
20200402214301 26 30 1.0 3.0 0.00 0.01 0.01 84 1013.3
20200402213801 27 30 2.0 3.0 0.00 0.01 0.01 84 1013.1
20200402213301 27 31 3.0 5.0 0.00 0.01 0.01 85 1012.8
20200402212301 27 59 2.0 3.0 0.00 0.01 0.01 85 1012.9
20200402211801 27 59 1.0 2.0 0.00 0.01 0.01 85 1012.7
20200402210301 26 59 0.0 0.0 0.00 0.01 0.01 86 1012.6
20200402205802 26 59 1.0 3.0 0.00 0.01 0.01 86 1012.9
20200402205301 26 61 0.0 0.0 0.00 0.01 0.01 87 1012.7
20200402204801 26 61 0.0 0.0 0.00 0.01 0.01 87 1012.3
20200402204302 26 61 0.0 2.0 0.00 0.01 0.01 87 1012.3
20200402203801 25 61 2.0 3.0 0.00 0.01 0.01 87 1012.4
20200402202801 26 61 0.0 3.0 0.00 0.01 0.01 88 1012.1
20200402202301 26 61 3.0 7.0 0.00 0.01 0.01 88 1012.1
20200402201801 26 19 2.0 3.0 0.00 0.01 0.01 88 1012.0
20200402200801 25 15 2.0 3.0 0.00 0.01 0.01 89 1012.0
20200402195801 25 13 2.0 3.0 0.00 0.01 0.01 89 1013.0
20200402195301 25 14 2.0 3.0 0.00 0.01 0.01 90 1013.0
20200402194802 25 11 2.0 3.0 0.00 0.01 0.01 90 1013.1
20200402194301 25 10 2.0 3.0 0.00 0.01 0.01 90 1013.0
20200402193803 24 5 1.0 2.0 0.00 0.01 0.01 90 1013.0
20200402193302 24 5 4.0 6.0 0.00 0.01 0.01 90 1013.0
20200402192801 24 44 3.0 5.0 0.00 0.01 0.01 90 1012.9
20200402191801 24 27 2.0 5.0 0.00 0.01 0.01 90 1012.8
20200402191301 24 28 2.0 5.0 0.00 0.01 0.01 90 1012.7
20200402190802 24 32 3.0 5.0 0.00 0.01 0.01 90 1012.6
20200402190302 24 20 3.0 5.0 0.00 0.01 0.01 90 1012.8
20200402185801 24 44 3.0 5.0 0.00 0.01 0.01 90 1012.8
20200402185301 24 33 3.0 6.0 0.00 0.01 0.01 90 1012.7
20200402184802 24 35 2.0 3.0 0.00 0.01 0.01 90 1012.7
20200402183801 24 16 4.0 6.0 0.00 0.01 0.01 91 1012.8
20200402183302 23 26 2.0 5.0 0.00 0.01 0.01 91 1012.8
20200402182802 23 22 3.0 6.0 0.00 0.01 0.01 91 1012.6
20200402182301 23 35 2.0 5.0 0.00 0.01 0.01 91 1012.3
20200402181802 23 39 2.0 7.0 0.00 0.01 0.01 91 1012.3
20200402181301 23 39 3.0 5.0 0.00 0.01 0.01 91 1012.3
20200402180802 23 40 2.0 5.0 0.00 0.01 0.01 91 1012.3
20200402175801 23 33 3.0 7.0 0.00 0.01 0.01 91 1012.8
20200402173801 22 38 3.0 7.0 0.00 0.01 0.01 91 1012.8
20200402173301 23 31 4.0 8.0 0.00 0.01 0.01 91 1012.8
20200402172802 22 39 3.0 7.0 0.00 0.01 0.01 91 1012.7
20200402172301 22 23 4.0 8.0 0.00 0.01 0.01 91 1012.7
20200402171801 22 36 3.0 6.0 0.00 0.01 0.01 91 1012.4
20200402171301 22 50 3.0 8.0 0.00 0.01 0.01 91 1012.4
20200402170301 23 57 2.0 7.0 0.00 0.01 0.01 92 1012.2
20200402165801 22 57 4.0 6.0 0.00 0.01 0.01 91 1013.0
20200402165302 22 14 2.0 5.0 0.00 0.01 0.01 91 1012.7
20200402164802 22 30 2.0 6.0 0.00 0.01 0.01 91 1012.8
20200402164301 22 38 3.0 7.0 0.00 0.01 0.01 91 1012.8
20200402163801 22 42 2.0 6.0 0.00 0.01 0.01 91 1012.6
20200402163302 22 27 3.0 7.0 0.00 0.01 0.01 91 1012.6
20200402162802 22 49 3.0 5.0 0.00 0.01 0.01 91 1012.6
20200402162302 22 36 3.0 9.0 0.00 0.01 0.01 91 1012.6
20200402161801 22 19 3.0 9.0 0.00 0.01 0.01 91 1012.4
20200402161302 22 55 2.0 7.0 0.00 0.01 0.01 91 1012.4
20200402160802 22 23 3.0 9.0 0.00 0.01 0.01 91 1012.4
20200402160302 22 32 3.0 9.0 0.00 0.01 0.01 91 1012.4
20200402155802 22 37 5.0 10.0 0.00 0.01 0.01 91 1012.4
20200402154802 23 28 5.0 9.0 0.00 0.01 0.01 91 1012.3
20200402154301 23 13 5.0 9.0 0.00 0.01 0.01 91 1012.4
20200402153802 24 39 4.0 12.0 0.00 0.01 0.01 92 1011.9
20200402152302 25 54 3.0 6.0 0.00 0.01 0.01 92 1011.8
20200402151801 25 31 3.0 6.0 0.00 0.01 0.01 92 1011.7
20200402151302 25 29 5.0 8.0 0.00 0.01 0.01 92 1011.7
20200402150802 25 31 3.0 7.0 0.00 0.01 0.01 92 1011.5
20200402145801 24 22 3.0 8.0 0.00 0.01 0.01 92 1011.8
20200402145301 24 50 3.0 8.0 0.00 0.01 0.01 92 1011.6
20200402144801 25 23 5.0 8.0 0.00 0.01 0.01 92 1011.6
20200402143802 25 28 5.0 8.0 0.00 0.01 0.01 92 1011.5
20200402143301 25 25 3.0 8.0 0.00 0.01 0.01 92 1011.4
20200402142801 25 30 3.0 9.0 0.00 0.01 0.01 92 1011.2
20200402141802 25 25 3.0 8.0 0.00 0.01 0.01 92 1010.6
20200402140802 25 23 3.0 10.0 0.00 0.01 0.01 92 1010.6
20200402135802 25 15 4.0 12.0 0.01 0.01 0.01 92 1010.9
20200402133802 26 31 5.0 8.0 0.01 0.01 0.01 92 1010.3
20200402133302 26 28 3.0 8.0 0.01 0.01 0.01 92 1009.9
20200402132801 26 21 5.0 12.0 0.01 0.01 0.01 92 1009.9
20200402131801 27 31 5.0 9.0 0.01 0.01 0.01 97 1009.8
20200402131302 27 2 5.0 9.0 0.01 0.01 0.01 92 1009.6
20200402130802 27 20 5.0 10.0 0.01 0.01 0.01 92 1009.3
20200402130301 27 5 5.0 10.0 0.00 0.00 0.00 92 1009.3
20200402125801 28 25 3.0 8.0 0.00 0.00 0.00 92 1009.3
20200402125301 28 35 4.0 12.0 0.00 0.00 0.00 92 1009.2
20200402124802 28 27 3.0 9.0 0.00 0.00 0.00 92 1009.1
20200402123301 29 3 3.0 7.0 0.00 0.00 0.00 92 1008.6
20200402122801 29 34 3.0 8.0 0.00 0.00 0.00 92 1008.7
20200402121301 29 48 4.0 7.0 0.00 0.00 0.00 92 1008.3
20200402120801 29 26 4.0 10.0 0.00 0.00 0.00 92 1008.1
20200402120302 29 43 5.0 10.0 0.00 0.00 0.00 92 1007.9
20200402115801 29 43 5.0 10.0 0.00 0.00 0.00 92 1008.0
20200402115301 29 63 4.0 9.0 0.00 0.00 0.00 92 1007.7
20200402114801 29 40 3.0 6.0 0.00 0.00 0.00 92 1007.7
20200402114301 29 68 5.0 12.0 0.00 0.00 0.00 92 1007.5
20200402113802 29 77 6.0 12.0 0.00 0.00 0.00 92 1007.5
20200402112801 29 58 4.0 10.0 0.00 0.00 0.00 92 1007.4
20200402112301 29 56 4.0 7.0 0.00 0.00 0.00 92 1007.3
20200402111802 29 66 3.0 10.0 0.00 0.00 0.00 92 1007.0
20200402110802 30 70 3.0 7.0 0.00 0.00 0.00 92 1007.1
20200402105301 30 58 3.0 10.0 0.00 0.00 0.00 92 1007.3
20200402104802 30 74 3.0 6.0 0.00 0.00 0.00 92 1007.2
20200402104301 30 39 4.0 8.0 0.00 0.00 0.00 91 1006.9
20200402103802 30 46 3.0 6.0 0.00 0.00 0.00 91 1007.1
20200402103301 30 76 4.0 8.0 0.00 0.00 0.00 91 1007.1
20200402102801 31 59 5.0 7.0 0.00 0.00 0.00 91 1007.1
20200402102305 30 55 3.0 6.0 0.00 0.00 0.00 91 1007.0
20200402101802 31 43 3.0 7.0 0.00 0.00 0.00 91 1007.0
20200402100802 31 54 4.0 8.0 0.00 0.00 0.00 91 1007.4
20200402095802 31 48 3.0 5.0 0.00 0.00 0.00 91 1007.4
20200402095301 31 41 3.0 8.0 0.00 0.00 0.00 91 1007.4
20200402094802 31 52 5.0 8.0 0.00 0.00 0.00 91 1007.2
20200402093801 32 55 4.0 7.0 0.00 0.00 0.00 91 1007.3
20200402093302 32 47 3.0 9.0 0.00 0.00 0.00 90 1007.3
20200402090801 33 40 5.0 8.0 0.00 0.00 0.00 90 1007.1
20200402090301 33 64 5.0 12.0 0.00 0.00 0.00 90 1007.1
20200402085802 34 42 5.0 10.0 0.00 0.00 0.00 90 1007.1
20200402084801 35 43 6.0 12.0 0.00 0.00 0.00 90 1007.2
20200402084302 35 50 6.0 8.0 0.00 0.00 0.00 90 1007.2
20200402082801 36 68 5.0 7.0 0.00 0.00 0.00 90 1007.4
20200402082305 36 72 4.0 12.0 0.00 0.00 0.00 90 1007.4
20200402081301 36 44 3.0 6.0 0.00 0.00 0.00 89 1007.5
20200402080802 36 79 4.0 8.0 0.00 0.00 0.00 89 1007.2
20200402080302 37 113 5.0 7.0 0.00 0.00 0.00 89 1007.2
20200402075301 37 68 3.0 12.0 0.00 0.00 0.00 89 1007.5
20200402073801 38 50 5.0 12.0 0.00 0.00 0.00 89 1007.4
20200402073301 38 62 5.0 12.0 0.00 0.00 0.00 89 1007.4
20200402072802 38 56 5.0 13.0 0.00 0.00 0.00 89 1007.4
20200402072301 38 68 5.0 10.0 0.00 0.00 0.00 89 1007.4
20200402071805 39 75 5.0 10.0 0.00 0.00 0.00 89 1007.6